| time (UTC) | temp F | wind direction | speed MPH | gust MPH | rain 1hr in | rain 24hr in | rain mn in | humidity % | barometer mb |
| 20260906124523 | 51 | 263 | 0.0 | 3.0 | 0.00 | 0.00 | 0.00 | 93 | 1013.1 |
| 20260906123020 | 51 | 263 | 1.0 | 2.0 | 0.00 | 0.00 | 0.00 | 94 | 1013.1 |
| 20260906121519 | 51 | 263 | 0.0 | 4.0 | 0.00 | 0.00 | 0.00 | 94 | 1013.2 |
| 20260906120017 | 51 | 24 | 1.0 | 3.0 | 0.00 | 0.00 | 0.00 | 93 | 1013.2 |
| 20260906114530 | 51 | 24 | 0.0 | 0.0 | 0.00 | 0.00 | 0.00 | 93 | 1013.2 |
| 20260906113015 | 51 | 23 | 0.0 | 0.0 | 0.00 | 0.00 | 0.00 | 93 | 1013.3 |
| 20260906111513 | 52 | 24 | 0.0 | 1.0 | 0.00 | 0.00 | 0.00 | 93 | 1013.3 |
| 20260906110013 | 52 | 24 | 0.0 | 0.0 | 0.00 | 0.00 | 0.00 | 93 | 1013.2 |
| 20260906104511 | 52 | 24 | 0.0 | 0.0 | 0.00 | 0.00 | 0.00 | 93 | 1013.2 |
| 20260906103009 | 52 | 24 | 0.0 | 0.0 | 0.00 | 0.00 | 0.00 | 93 | 1013.2 |
| 20260906101509 | 52 | 24 | 0.0 | 0.0 | 0.00 | 0.00 | 0.00 | 93 | 1013.2 |
| 20260906100010 | 52 | 24 | 1.0 | 2.0 | 0.00 | 0.00 | 0.00 | 92 | 1013.2 |
| 20260906094520 | 53 | 24 | 1.0 | 3.0 | 0.00 | 0.00 | 0.00 | 92 | 1013.4 |
| 20260906093008 | 52 | 24 | 0.0 | 1.0 | 0.00 | 0.00 | 0.00 | 92 | 1013.4 |
| 20260906091503 | 53 | 24 | 0.0 | 2.0 | 0.00 | 0.00 | 0.00 | 92 | 1013.4 |
| 20260906090002 | 53 | 24 | 0.0 | 1.0 | 0.00 | 0.00 | 0.00 | 92 | 1013.6 |
| 20260906084600 | 53 | 24 | 1.0 | 3.0 | 0.00 | 0.00 | 0.00 | 92 | 1013.7 |
| 20260906083058 | 53 | 24 | 0.0 | 2.0 | 0.00 | 0.00 | 0.00 | 91 | 1013.7 |
| 20260906081557 | 54 | 24 | 0.0 | 3.0 | 0.00 | 0.00 | 0.00 | 91 | 1013.8 |
| 20260906080056 | 54 | 24 | 1.0 | 2.0 | 0.00 | 0.00 | 0.00 | 91 | 1013.8 |
| 20260906074555 | 54 | 24 | 1.0 | 3.0 | 0.00 | 0.00 | 0.00 | 91 | 1013.9 |
| 20260906073051 | 55 | 45 | 0.0 | 0.0 | 0.00 | 0.00 | 0.00 | 91 | 1013.9 |
| 20260906071550 | 55 | 45 | 0.0 | 0.0 | 0.00 | 0.00 | 0.00 | 91 | 1013.9 |
| 20260906070048 | 55 | 45 | 0.0 | 0.0 | 0.00 | 0.00 | 0.00 | 90 | 1013.8 |
| 20260906064547 | 55 | 45 | 0.0 | 0.0 | 0.00 | 0.00 | 0.00 | 90 | 1013.9 |
| 20260906063050 | 56 | 45 | 0.0 | 0.0 | 0.00 | 0.00 | 0.00 | 90 | 1013.9 |
| 20260906061547 | 56 | 45 | 0.0 | 0.0 | 0.00 | 0.00 | 0.00 | 89 | 1013.8 |
| 20260906060046 | 56 | 45 | 0.0 | 0.0 | 0.00 | 0.00 | 0.00 | 89 | 1013.8 |
| 20260906054549 | 57 | 45 | 0.0 | 0.0 | 0.00 | 0.00 | 0.00 | 89 | 1014.0 |
| 20260906053045 | 58 | 45 | 0.0 | 0.0 | 0.00 | 0.00 | 0.00 | 89 | 1014.1 |
| 20260906051556 | 58 | 45 | 0.0 | 0.0 | 0.00 | 0.00 | 0.00 | 89 | 1014.3 |
| 20260906050044 | 59 | 45 | 0.0 | 0.0 | 0.00 | 0.00 | 0.00 | 89 | 1014.4 |
| 20260906044549 | 60 | 45 | 0.0 | 0.0 | 0.00 | 0.00 | 0.00 | 89 | 1014.2 |
| 20260906043044 | 60 | 45 | 0.0 | 2.0 | 0.00 | 0.00 | 0.00 | 89 | 1014.1 |
| 20260906041543 | 61 | 64 | 0.0 | 3.0 | 0.00 | 0.00 | 0.00 | 90 | 1014.0 |
| 20260906040043 | 61 | 88 | 1.0 | 4.0 | 0.00 | 0.00 | 0.00 | 89 | 1013.7 |
| 20260906034542 | 61 | 63 | 1.0 | 5.0 | 0.00 | 0.00 | 0.00 | 89 | 1013.6 |
| 20260906033048 | 61 | 53 | 0.0 | 4.0 | 0.00 | 0.00 | 0.00 | 89 | 1013.4 |
| 20260906031541 | 62 | 77 | 1.0 | 4.0 | 0.00 | 0.00 | 0.00 | 89 | 1013.2 |
| 20260906030041 | 62 | 77 | 2.0 | 5.0 | 0.00 | 0.00 | 0.00 | 89 | 1013.1 |
| 20260906024548 | 62 | 84 | 3.0 | 8.0 | 0.00 | 0.00 | 0.00 | 88 | 1013.0 |
| 20260906023039 | 63 | 98 | 4.0 | 8.0 | 0.00 | 0.00 | 0.00 | 88 | 1013.0 |
| 20260906021540 | 63 | 76 | 3.0 | 9.0 | 0.00 | 0.00 | 0.00 | 87 | 1013.1 |
| 20260906020038 | 64 | 66 | 6.0 | 9.0 | 0.00 | 0.00 | 0.00 | 86 | 1013.1 |
| 20260906014602 | 65 | 106 | 3.0 | 10.0 | 0.00 | 0.00 | 0.00 | 85 | 1013.0 |
| 20260906013045 | 66 | 92 | 6.0 | 11.0 | 0.00 | 0.00 | 0.00 | 83 | 1012.9 |
| 20260906011538 | 66 | 102 | 5.0 | 9.0 | 0.00 | 0.00 | 0.00 | 80 | 1013.0 |
| 20260906010035 | 68 | 108 | 6.0 | 10.0 | 0.00 | 0.00 | 0.00 | 79 | 1013.0 |
| 20260906004534 | 69 | 148 | 5.0 | 9.0 | 0.00 | 0.00 | 0.00 | 75 | 1013.0 |
| 20260906003032 | 69 | 116 | 3.0 | 9.0 | 0.00 | 0.00 | 0.00 | 74 | 1013.0 |
| 20260906001533 | 69 | 113 | 3.0 | 9.0 | 0.00 | 0.00 | 0.00 | 75 | 1013.1 |
| 20260906000032 | 68 | 75 | 6.0 | 11.0 | 0.00 | 0.00 | 0.00 | 78 | 1013.1 |
| 20260905234530 | 69 | 105 | 6.0 | 11.0 | 0.00 | 0.00 | 0.00 | 79 | 1013.0 |
| 20260905233030 | 69 | 110 | 7.0 | 12.0 | 0.00 | 0.00 | 0.00 | 78 | 1013.1 |
| 20260905231529 | 70 | 101 | 8.0 | 13.0 | 0.00 | 0.00 | 0.00 | 77 | 1013.1 |
| 20260905230030 | 69 | 80 | 7.0 | 12.0 | 0.00 | 0.00 | 0.00 | 73 | 1013.3 |
| 20260905224528 | 69 | 59 | 6.0 | 13.0 | 0.00 | 0.00 | 0.00 | 74 | 1013.4 |
| 20260905223027 | 69 | 124 | 5.0 | 12.0 | 0.00 | 0.00 | 0.00 | 77 | 1013.4 |
| 20260905221527 | 69 | 94 | 9.0 | 13.0 | 0.00 | 0.00 | 0.00 | 77 | 1013.5 |
| 20260905220025 | 69 | 123 | 8.0 | 14.0 | 0.00 | 0.00 | 0.00 | 77 | 1013.6 |
| 20260905214527 | 70 | 131 | 10.0 | 14.0 | 0.00 | 0.00 | 0.00 | 74 | 1013.7 |
| 20260905213026 | 70 | 119 | 5.0 | 14.0 | 0.00 | 0.00 | 0.00 | 75 | 1013.7 |
| 20260905211534 | 70 | 111 | 7.0 | 16.0 | 0.00 | 0.00 | 0.00 | 74 | 1013.9 |
| 20260905210023 | 70 | 121 | 10.0 | 16.0 | 0.00 | 0.00 | 0.00 | 74 | 1013.9 |
| 20260905204528 | 70 | 167 | 9.0 | 15.0 | 0.00 | 0.00 | 0.00 | 72 | 1014.0 |
| 20260905203023 | 72 | 93 | 8.0 | 15.0 | 0.00 | 0.00 | 0.00 | 68 | 1014.2 |
| 20260905201522 | 71 | 64 | 8.0 | 15.0 | 0.00 | 0.00 | 0.00 | 70 | 1014.2 |
| 20260905200021 | 71 | 94 | 10.0 | 15.0 | 0.00 | 0.00 | 0.00 | 71 | 1014.2 |
| 20260905194520 | 71 | 113 | 8.0 | 14.0 | 0.00 | 0.00 | 0.00 | 70 | 1014.2 |
| 20260905193019 | 71 | 101 | 7.0 | 14.0 | 0.00 | 0.00 | 0.00 | 68 | 1014.4 |
| 20260905191519 | 70 | 133 | 7.0 | 14.0 | 0.00 | 0.00 | 0.00 | 67 | 1014.3 |
| 20260905190018 | 70 | 121 | 8.0 | 13.0 | 0.00 | 0.00 | 0.00 | 67 | 1014.4 |
| 20260905184526 | 71 | 96 | 6.0 | 12.0 | 0.00 | 0.00 | 0.00 | 67 | 1014.4 |
| 20260905183016 | 71 | 109 | 8.0 | 12.0 | 0.00 | 0.00 | 0.00 | 68 | 1014.3 |
| 20260905181513 | 71 | 127 | 5.0 | 10.0 | 0.00 | 0.00 | 0.00 | 69 | 1014.3 |
| 20260905180015 | 70 | 121 | 4.0 | 9.0 | 0.00 | 0.00 | 0.00 | 71 | 1014.3 |
| 20260905174610 | 69 | 105 | 3.0 | 9.0 | 0.00 | 0.00 | 0.00 | 72 | 1014.3 |
| 20260905173009 | 68 | 53 | 4.0 | 9.0 | 0.00 | 0.00 | 0.00 | 75 | 1014.3 |
| 20260905171509 | 67 | 100 | 4.0 | 10.0 | 0.00 | 0.00 | 0.00 | 76 | 1014.2 |
| 20260905170008 | 70 | 103 | 5.0 | 10.0 | 0.00 | 0.00 | 0.00 | 71 | 1014.1 |
| 20260905164505 | 69 | 18 | 0.0 | 2.0 | 0.00 | 0.00 | 0.00 | 75 | 1014.0 |
| 20260905163001 | 67 | 88 | 0.0 | 1.0 | 0.00 | 0.00 | 0.00 | 79 | 1014.1 |
| 20260905161604 | 66 | 289 | 0.0 | 3.0 | 0.00 | 0.00 | 0.00 | 83 | 1014.0 |
| 20260905160054 | 64 | 289 | 1.0 | 4.0 | 0.00 | 0.00 | 0.00 | 86 | 1014.1 |
| 20260905154559 | 62 | 283 | 4.0 | 7.0 | 0.00 | 0.00 | 0.00 | 88 | 1014.0 |
| 20260905153048 | 61 | 254 | 4.0 | 11.0 | 0.00 | 0.00 | 0.00 | 91 | 1013.9 |
| 20260905151543 | 60 | 268 | 4.0 | 9.0 | 0.00 | 0.00 | 0.00 | 92 | 1013.7 |
| 20260905150039 | 58 | 273 | 6.0 | 9.0 | 0.00 | 0.00 | 0.00 | 92 | 1013.6 |
| 20260905144536 | 56 | 301 | 4.0 | 8.0 | 0.00 | 0.00 | 0.00 | 93 | 1013.5 |
| 20260905143036 | 55 | 289 | 4.0 | 7.0 | 0.00 | 0.00 | 0.00 | 95 | 1013.3 |
| 20260905141535 | 53 | 55 | 0.0 | 0.0 | 0.00 | 0.00 | 0.00 | 95 | 1013.1 |
| 20260905140034 | 52 | 56 | 0.0 | 0.0 | 0.00 | 0.00 | 0.00 | 94 | 1012.9 |
| 20260905134536 | 52 | 56 | 0.0 | 0.0 | 0.00 | 0.01 | 0.00 | 94 | 1012.8 |
| 20260905133031 | 52 | 56 | 0.0 | 0.0 | 0.00 | 0.01 | 0.00 | 94 | 1012.9 |
| 20260905131530 | 52 | 56 | 0.0 | 2.0 | 0.00 | 0.01 | 0.00 | 93 | 1012.9 |
| 20260905130027 | 52 | 56 | 1.0 | 3.0 | 0.00 | 0.01 | 0.00 | 93 | 1012.9 |